Regional Weather Roundup
Issued by NWS Charleston, SC

Current Version | Previous Version | Graphics & Text | Print | Product List | Glossary On
Versions: 1 2 3 4 5 6 7 8 9 10 11 12 13 14 15 16 17 18 19 20 21 22 23 24 25 26 27 28 29 30 31 32 33 34 35 36 37 38 39 40 41 42 43 44 45 46 47 48 49 50
000
ASUS42 KCHS 300328
RWRCHS

REGIONAL WEATHER ROUNDUP
NATIONAL WEATHER SERVICE CHARLESTON SC
1100 PM EDT MON AUG 29 2016

NOTE: "FAIR" INDICATES FEW OR NO CLOUDS BELOW 12,000 FEET WITH NO
SIGNIFICANT WEATHER AND/OR OBSTRUCTIONS TO VISIBILITY.

NOT ALL STATIONS ARE QUALITY CONTROLLED. USE DATA WITH CAUTION...
ESPECIALLY DEWPOINT OBSERVATIONS.

SCZ027-030-031-034>040-042>050-300400-
...SOUTHEAST SOUTH CAROLINA...

CITY           SKY/WX    TMP DP  RH WIND       PRES   REMARKS
N CHARLESTON   PTCLDY    76  73  91 CALM      30.05S
WATERFRONT PRK   N/A     80  77  90 N5        30.03S
MOUNT PLEASANT FAIR      75  75 100 CALM      30.05F
JOHNS ISLAND   FAIR      77  75  94 CALM      30.05S
PINOPOLIS        N/A     79  75  89 CALM      29.98S
MONCKS CORNER  FAIR      72  72 100 CALM      30.06R
SUMMERVILLE    FAIR      73  73 100 CALM      30.07S
BEAUFORT MCAS  CLEAR     75  73  93 NE3       30.06R
BEAUFORT ARPT  FAIR      77  75  94 N3        30.04F
HILTON HEAD IS PTCLDY    82  75  78 VRB7      30.05S
WALTERBORO     CLEAR     75  75 100 CALM      30.06F
ALLENDALE      FAIR      73  72  94 CALM      30.06S

...SOUTHERN MIDLANDS AND PEE DEE...

CITY           SKY/WX    TMP DP  RH WIND       PRES   REMARKS
GEORGETOWN     FAIR      72  72 100 CALM      30.06S
KINGSTREE      FAIR      70  68  94 CALM      30.07R
ORANGEBURG     CLEAR     74  73  97 CALM      30.07S
BARNWELL       NOT AVBL
AIKEN          FAIR      73  72  94 CALM      30.12S
MANNING        FAIR      72  70  94 CALM      30.07R
COLUMBIA       PTCLDY    79  74  84 CALM      30.06F
SUMTER         CLEAR     74  71  89 NE3       30.05S
FLORENCE       PTCLDY    77  71  82 NE6       30.08S
MYRTLE BEACH   PTCLDY    79  66  65 N7        30.08R
N MYRTLE BEACH PTCLDY    75  72  90 N6        30.06R

$$

GAZ063-065-086>088-099>101-113>116-118-119-134>141-150-300400-
...SOUTHEAST GEORGIA...

CITY           SKY/WX    TMP DP  RH WIND       PRES   REMARKS
SAVANNAH ARPT  PTCLDY    76  72  87 NE5       30.06R
HUNTER AAF     PTCLDY    77  77 100 VRB6      30.01F
FORT STEWART   PTCLDY    75  73  91 NE2       30.02F
STATESBORO     PTCLDY    75  74  95 E3        30.07R
SYLVANIA       NOT AVBL
CLAXTON        FAIR      75  73  95 CALM      30.06S

...CSRA...CENTRAL AND FAR SOUTHEAST GEORGIA...

CITY           SKY/WX    TMP DP  RH WIND       PRES   REMARKS
THOMSON        NOT AVBL
AUGUSTA-BUSH   CLEAR     74  72  93 CALM      30.07R
AUGUSTA-DANIEL CLEAR     78  72  81 SE3       30.09R
SWAINSBORO     MOCLDY    79  70  73 E6        30.07S
VIDALIA        CLEAR     79  75  89 NE3       30.07S
EASTMAN        FAIR      81  64  55 CALM      30.07F
HAZLEHURST     FAIR      79  77  94 CALM      30.05R
ALMA           PTCLDY    77  72  84 E3        30.03R
WAYCROSS         N/A     79  77  93 E6        30.03R
JESUP          FAIR      77  77 100 E5        30.04S
BAXLEY         CLOUDY    79  79 100 NE6       30.05R
BRUNSWICK      CLEAR     79  77  94 E6        30.03F
SAINT SIMONS   PTCLDY    83  74  74 E12       30.02S

$$

SCZ027-028-034-036>038-045-046-048>050-GAZ119-141-300400-
...LAKE AND SUPPLEMENTAL COASTAL OBSERVATIONS...

STATION/POSITION TIME  TEMP    WIND        PRES    WAVE   SWELL
                       AIR SEA DIR/SP/G            HT/PER HT/PER/DIR
                 (UTC) (F)     (DEG/KT/KT) (MB)    (FT/S) (FT/S/D)
WINYAH BAY       0245   78     330/  2     1017.0S
LAKE MURRAY      0200   83     110/  5/  8 1017.9R
ACE BASIN NERRS  0200   75        CALM     1018.0R
FORT PULASKI     0300   83 85   90/ 13/ 15 1017.6F
SAPELO ISLAND    0300   81      70/  7     1017.0S

$$

ANZ835-935-AMZ111-154-330-350-352-354-370-450-454-472-300400-
...C-MAN AND BUOY OBSERVATIONS...

STATION/POSITION TIME  TEMP    WIND        PRES    WAVE   SWELL
                       AIR SEA DIR/SP/G            HT/PER HT/PER/DIR
                 (UTC) (F)     (DEG/KT/KT) (MB)    (FT/S) (FT/S/D)
BUOY 41004       0250   83 85   70/ 12/ 14 1016.6S   4/ 8   3/110/ 8
BUOY 41008       0250   83 85   70/ 14/ 16 1016.6F   3/14   2/100/14
FOLLY BEACH CMAN 0300   82      80/  9/ 11 1017.6F
CAPERS NEARSHORE 0208   82 84   80/ 10/ 16 1017.1R
FRIPP NEARSHORE  0308   83 85   90/ 12/ 16 1016.7R


STATION/POSITION TIME  TEMP    WIND        PRES    WAVE   SWELL
                       AIR SEA DIR/SP/G            HT/PER HT/PER/DIR
                 (UTC) (F)     (DEG/KT/KT) (MB)    (FT/S) (FT/S/D)
5E ST. MARYS GA  0301      85                N/A     4/13   2/ 90/13
FRYING PAN BUOY  0300   83 85   30/ 12/ 16 1016.8R
BUOY 41025       0250   82 84   30/ 16/ 19 1016.6S   6/13   3/110/13
CAPE LOOKOUT NC  0300   81      30/ 18/ 20 1017.2R
BUOY 41002       0250   83 84  230/  6/  8 1016.1R   5/11   5/ 80/11
BUOY 41010       NOT AVBL
ST AUGUSTINE FL  0300   78 84   80/ 15/ 18 1017.3R


$$




USA.gov is the U.S. government's official web portal to all federal, state and local government web resources and services.